User: anonymous   Login
Location: Koussan�
(15.2012°N, 12.5548°W)
Time: 00:15:06
(UTC+00:00)
Language:

CZ-4 R/B - Orbit

View from above orbital plane
View from above orbital plane
View from above satellite
View from above satellite

Ground track
Ground track

The orbit data is extracted from the following two-line orbital elements,

1 28414U 04035B   21018.80669196  .00000336  00000-0  36542-4 0  9994
2 28414  97.7498  41.8416 0005201 337.6385  22.4626 14.94303523891095
Epoch (UTC): 18 January 2021 19:21:38
Eccentricity: 0.0005201
inclination: 97.7498°
perigee height: 581 km
apogee height: 588 km
right ascension of ascending node: 41.8416°
argument of perigee: 337.6385°
revolutions per day: 14.94303523
mean anomaly at epoch: 22.4626°
orbit number at epoch: 89109

The dashed part of the orbit path shows where the satellite is in the earth's shadow,  

DLR